{"data":{"norad_id":52648,"intl_designator":"2022-052BC","name":"STARLINK-3854","alt_names":[],"object_type":"PAYLOAD","status":"ACTIVE","operator":null,"country":"US","launch_date":"2022-05-14","launch_site_code":"AFETR","launch_vehicle":null,"mission":null,"orbit_class":"UNKNOWN","rcs_meters":null,"size_class":null,"mass_kg":null,"dimensions":null,"purposes":["comms"],"wikipedia_slug":null,"has_3d_model":false,"image_url":null,"decayed_at":null,"tle_current":{"epoch":"2026-09-20T01:40:07.292640Z","epoch_age_seconds":103682,"freshness":"FRESH","line1":"1 52648U 22052BC  26263.06952885 -.00000396  00000+0 -71229-6 0  9994","line2":"2 52648  53.1589  93.9469 0001299  80.4634 279.6515 15.33556305240641","mean_motion":15.33556305,"eccentricity":0.0001299,"inclination_deg":53.1589,"raan_deg":93.9469,"arg_perigee_deg":80.4634,"mean_anomaly_deg":279.6515,"bstar":-7.1229e-7,"rev_number":24064,"period_min":93.899388976135,"perigee_km":464.32307809903,"apogee_km":466.1009801768,"semimajor_km":6843.3490291379,"source":"CELESTRAK","updated_at":"2026-09-20T09:00:40.099370Z"}}}